Black River Falls, WI

5:14 AM CDT on August 30, 2016 (GMT -0500)
Black River Falls Area

Weather History for KBCK - July, 2013

Change the Weather History Date:

Friday, July 26, 2013

  Actual Average (KLSE) Record (KLSE)
Temperature  
Mean Temperature 66 °F 73 °F  
Max Temperature 76 °F 84 °F 101 °F (1955)
Min Temperature 57 °F 63 °F 48 °F (1911)
Degree Days  
Heating Degree Days 0 0  
Month to date heating degree days 0  
Since 1 July heating degree days 0  
Cooling Degree Days 2 9  
Month to date cooling degree days 233  
Year to date cooling degree days 447  
Growing Degree Days 16 (Base 50)    
Moisture  
Dew Point 57 °F    
Average Humidity 76    
Maximum Humidity 100    
Minimum Humidity 43    
Precipitation  
Precipitation 0.00 in 0.14 in 2.20 in (1901)
Month to date precipitation 3.58  
Year to date precipitation 18.99  
Snow  
Snow 0.00 in 0.00 in 0.00 in (2002)
Month to date snowfall 0.0  
Since 1 July snowfall 0.0  
Snow Depth -    
Sea Level Pressure  
Sea Level Pressure 29.92 in    
Wind  
Wind Speed 5 mph (WNW)    
Max Wind Speed 17 mph    
Max Gust Speed 25 mph    
Visibility 9 miles    
Events      
T = Trace of Precipitation, MM = Missing Value Source: NWS Daily Summary

Daily Weather History Graph

Daily Weather History Graph

Search for Another Location

Airport or City:

Trip Planner

Search our weather history database for the weather conditions in past years. The results will help you decide how hot, cold, wet, or windy it might be!

Date:

Astronomy

Jul. 26, 2013 Rise Set
Actual Time 5:44 AM CDT 8:34 PM CDT
Civil Twilight 5:10 AM CDT 9:08 PM CDT
Nautical Twilight 4:27 AM CDT 9:51 PM CDT
Astronomical Twilight 3:37 AM CDT 10:40 PM CDT
Moon 10:34 PM CDT (7/26) 10:33 AM CDT (7/26)
Length of Visible Light 15h 57m
Length of Day
14h 49m
Waning Gibbous, 80% of the Moon is Illuminated
Jul 26
Waning Gibbous
Jul 29
Last Quarter
Aug 6
New
Aug 14
First Quarter
Aug 20
Full

Hourly Weather History & Observations

Time (CDT) Temp. Dew Point Humidity Pressure Visibility Wind Dir Wind Speed Gust Speed Precip Events Conditions
12:15 AM 62.6 °F 62.6 °F 100% 29.96 in 7.0 mi Calm Calm - N/A   Overcast
12:35 AM 61.7 °F 61.7 °F 100% 29.95 in 7.0 mi SSE 3.5 mph - N/A   Mostly Cloudy
12:55 AM 61.7 °F 61.7 °F 100% 29.95 in 7.0 mi Calm Calm - N/A   Scattered Clouds
1:15 AM 61.2 °F 61.2 °F 100% 29.95 in 7.0 mi Calm Calm - N/A   Clear
1:35 AM 60.4 °F 60.4 °F 100% 29.94 in 5.0 mi Calm Calm - N/A   Scattered Clouds
1:55 AM 61.0 °F 61.0 °F 100% 29.94 in 7.0 mi Calm Calm - N/A   Overcast
2:15 AM 61.2 °F 61.2 °F 100% 29.93 in 10.0 mi Calm Calm - N/A   Overcast
2:35 AM 60.6 °F 60.6 °F 100% 29.93 in 7.0 mi Calm Calm - N/A   Overcast
2:55 AM 60.3 °F 60.3 °F 100% 29.92 in 7.0 mi Calm Calm - N/A   Overcast
3:15 AM 61.3 °F 61.3 °F 100% 29.92 in 7.0 mi Calm Calm - N/A   Overcast
3:35 AM 61.5 °F 61.5 °F 100% 29.92 in 10.0 mi Calm Calm - N/A   Overcast
3:55 AM 61.7 °F 61.7 °F 100% 29.91 in 10.0 mi Calm Calm - N/A   Overcast
4:15 AM 62.1 °F 62.1 °F 100% 29.91 in 10.0 mi Calm Calm - N/A   Overcast
4:35 AM 62.6 °F 62.6 °F 100% 29.92 in 10.0 mi Calm Calm - N/A   Overcast
4:55 AM 62.8 °F 62.8 °F 100% 29.91 in 10.0 mi Calm Calm - N/A   Overcast
5:15 AM 63.0 °F 63.0 °F 100% 29.91 in 10.0 mi Calm Calm - N/A   Overcast
5:35 AM 63.0 °F 63.0 °F 100% 29.91 in 7.0 mi Calm Calm - N/A   Overcast
5:55 AM 63.0 °F 63.0 °F 100% 29.91 in 7.0 mi Calm Calm - N/A   Overcast
6:15 AM 63.1 °F 63.1 °F 100% 29.91 in 7.0 mi Calm Calm - N/A   Overcast
6:35 AM 63.5 °F 63.5 °F 100% 29.91 in 7.0 mi SSW 3.5 mph - N/A   Overcast
6:55 AM 64.0 °F 64.0 °F 100% 29.91 in 7.0 mi SSW 5.8 mph - N/A   Overcast
7:15 AM 64.4 °F 64.4 °F 100% 29.91 in 7.0 mi SSW 4.6 mph - N/A   Overcast
7:35 AM 64.6 °F 64.6 °F 100% 29.91 in 7.0 mi SSW 4.6 mph - N/A   Overcast
7:55 AM 64.9 °F 64.9 °F 100% 29.91 in 7.0 mi SSW 4.6 mph - N/A   Overcast
8:15 AM 66.2 °F 66.2 °F 100% 29.92 in 10.0 mi SSW 6.9 mph - N/A   Overcast
8:35 AM 65.8 °F 65.8 °F 100% 29.92 in 10.0 mi South 4.6 mph - N/A   Overcast
8:55 AM 66.0 °F 66.0 °F 100% 29.91 in 10.0 mi SSW 4.6 mph - N/A   Overcast
9:15 AM 66.4 °F 66.4 °F 100% 29.91 in 10.0 mi SSW 4.6 mph - N/A   Overcast
9:35 AM 66.7 °F 66.6 °F 99% 29.91 in 10.0 mi SW 5.8 mph - N/A   Overcast
9:55 AM 67.6 °F 66.2 °F 95% 29.91 in 10.0 mi WSW 4.6 mph - N/A   Overcast
10:15 AM 68.7 °F 66.6 °F 93% 29.90 in 10.0 mi West 4.6 mph - N/A   Overcast
10:35 AM 71.8 °F 62.4 °F 72% 29.90 in 10.0 mi West 9.2 mph - N/A   Overcast
10:55 AM 71.4 °F 62.2 °F 73% 29.89 in 10.0 mi WNW 8.1 mph - N/A   Mostly Cloudy
11:15 AM 73.2 °F 59.7 °F 63% 29.89 in 10.0 mi West 8.1 mph - N/A   Mostly Cloudy
11:35 AM 72.7 °F 59.9 °F 64% 29.89 in 10.0 mi West 13.8 mph 18.4 mph N/A   Mostly Cloudy
11:55 AM 74.5 °F 57.7 °F 56% 29.89 in 10.0 mi WNW 13.8 mph 20.7 mph N/A   Mostly Cloudy
12:15 PM 75.0 °F 54.9 °F 49% 29.89 in 10.0 mi West 17.3 mph 24.2 mph N/A   Scattered Clouds
12:35 PM 74.5 °F 54.0 °F 49% 29.89 in 10.0 mi West 12.7 mph 25.3 mph N/A   Clear
12:55 PM 73.4 °F 54.0 °F 50% 29.89 in 10.0 mi WNW 13.8 mph 19.6 mph N/A   Scattered Clouds
1:15 PM 75.2 °F 54.3 °F 48% 29.89 in 10.0 mi WNW 16.1 mph 23.0 mph N/A   Scattered Clouds
1:35 PM 75.6 °F 52.2 °F 44% 29.89 in 10.0 mi West 10.4 mph 20.7 mph N/A   Clear
1:55 PM 74.3 °F 51.1 °F 44% 29.89 in 10.0 mi West 16.1 mph - N/A   Mostly Cloudy
2:15 PM 72.1 °F 52.7 °F 50% 29.89 in 10.0 mi West 9.2 mph - N/A   Overcast
2:35 PM 70.3 °F 52.7 °F 53% 29.90 in 10.0 mi WNW 13.8 mph 19.6 mph N/A   Overcast
2:55 PM 73.6 °F 52.9 °F 48% 29.90 in 10.0 mi WNW 13.8 mph 19.6 mph N/A   Mostly Cloudy
3:15 PM 74.3 °F 52.7 °F 47% 29.90 in 10.0 mi WNW 15.0 mph 21.9 mph N/A   Mostly Cloudy
3:35 PM 74.1 °F 50.7 °F 44% 29.89 in 10.0 mi WNW 13.8 mph 23.0 mph N/A   Scattered Clouds
3:55 PM 73.8 °F 50.0 °F 43% 29.89 in 10.0 mi WNW 13.8 mph 23.0 mph N/A   Clear
4:15 PM 74.5 °F 50.7 °F 43% 29.89 in 10.0 mi WNW 12.7 mph 20.7 mph N/A   Clear
4:35 PM 74.3 °F 50.9 °F 44% 29.89 in 10.0 mi WNW 13.8 mph 23.0 mph N/A   Scattered Clouds
4:55 PM 72.5 °F 51.3 °F 47% 29.90 in 10.0 mi NW 9.2 mph 19.6 mph N/A   Scattered Clouds
5:15 PM 72.1 °F 51.1 °F 47% 29.90 in 10.0 mi WNW 9.2 mph 19.6 mph N/A   Mostly Cloudy
5:35 PM 70.2 °F 51.8 °F 52% 29.91 in 10.0 mi WNW 9.2 mph 16.1 mph N/A   Overcast
5:55 PM 70.0 °F 53.2 °F 55% 29.91 in 10.0 mi NW 5.8 mph - N/A   Overcast
6:15 PM 72.0 °F 53.1 °F 51% 29.91 in 10.0 mi NW 10.4 mph 17.3 mph N/A   Mostly Cloudy
6:35 PM 69.4 °F 52.3 °F 54% 29.93 in 10.0 mi NW 15.0 mph 21.9 mph N/A   Mostly Cloudy
6:55 PM 66.4 °F 54.3 °F 65% 29.94 in 10.0 mi NNW 11.5 mph 20.7 mph N/A   Overcast
7:15 PM 65.3 °F 55.4 °F 70% 29.95 in 10.0 mi NNW 6.9 mph 17.3 mph N/A   Overcast
7:35 PM 64.8 °F 54.0 °F 68% 29.95 in 10.0 mi NNW 8.1 mph - N/A   Overcast
7:55 PM 64.6 °F 54.0 °F 68% 29.96 in 10.0 mi NW 10.4 mph - N/A   Overcast
8:15 PM 64.4 °F 52.3 °F 65% 29.96 in 10.0 mi North 9.2 mph 17.3 mph N/A   Overcast
8:35 PM 62.6 °F 50.5 °F 65% 29.97 in 10.0 mi North 9.2 mph - N/A   Scattered Clouds
8:55 PM 61.9 °F 50.0 °F 65% 29.97 in 10.0 mi NNW 9.2 mph - N/A   Clear
9:15 PM 59.9 °F 50.4 °F 71% 29.98 in 10.0 mi North 5.8 mph - N/A   Clear
9:35 PM 60.3 °F 49.1 °F 67% 29.98 in 10.0 mi North 8.1 mph - N/A   Mostly Cloudy
9:55 PM 59.7 °F 48.7 °F 67% 29.99 in 10.0 mi North 5.8 mph - N/A   Overcast
10:15 PM 59.2 °F 49.1 °F 69% 30.00 in 10.0 mi North 5.8 mph - N/A   Overcast
10:35 PM 58.6 °F 47.8 °F 67% 30.00 in 10.0 mi North 9.2 mph - N/A   Mostly Cloudy
10:55 PM 58.1 °F 48.0 °F 69% 30.00 in 10.0 mi NNW 4.6 mph - N/A   Mostly Cloudy
11:15 PM 58.1 °F 47.7 °F 68% 30.00 in 10.0 mi North 6.9 mph - N/A   Overcast
11:35 PM 58.1 °F 47.3 °F 67% 30.00 in 10.0 mi North 8.1 mph - N/A   Overcast
11:55 PM 57.2 °F 47.3 °F 69% 29.99 in 10.0 mi North 6.9 mph - N/A   Overcast